Change the Weather History Date:

Friday, November 9, 2012

  Actual Average Record
Temperature  
Mean Temperature 48 °F 45 °F  
Max Temperature 58 °F 52 °F 75 °F (1999)
Min Temperature 38 °F 38 °F 16 °F (1991)
Degree Days  
Heating Degree Days 17 20  
Month to date heating degree days 203 166  
Since 1 July heating degree days 645 597  
Cooling Degree Days 0 0  
Month to date cooling degree days 0 0  
Year to date cooling degree days 1473 1045  
Moisture  
Dew Point 39 °F    
Average Humidity 66    
Maximum Humidity 87    
Minimum Humidity 46    
Precipitation  
Precipitation 0.00 in 0.11 in 2.69 in (1966)
Month to date precipitation 0.11 1.03  
Year to date precipitation 23.89 34.13  
Sea Level Pressure  
Sea Level Pressure 30.05 in    
Wind  
Wind Speed 6 mph (SSE)    
Max Wind Speed 12 mph    
Max Gust Speed 20 mph    
Visibility 7 miles    
Events      
T = Trace of Precipitation, MM = Missing Value Source: NWS Daily Summary

Daily Weather History Graph

Daily Weather History Graph

Search for Another Location

Airport or City:

Trip Planner

Search our weather history database for the weather conditions in past years. The results will help you decide how hot, cold, wet, or windy it might be!

Date:

Astronomy

Nov. 09, 2012 Rise Set
Actual Time 6:33 AM CST 4:35 PM CST
Civil Twilight 6:04 AM CST 5:05 PM CST
Nautical Twilight 5:30 AM CST 5:38 PM CST
Astronomical Twilight 4:58 AM CST 6:11 PM CST
Moon 1:28 AM CST (11/9) 1:52 PM CST (11/9)
Length of Visible Light 11h 00m
Length of Day
10h 01m
Waning Crescent, 23% of the Moon is Illuminated
Nov 9
Waning Crescent
Nov 13
New
Nov 20
First Quarter
Nov 28
Full
Dec 6
Last Quarter

Hourly Weather History & Observations

Time (CST) Temp. Windchill Dew Point Humidity Pressure Visibility Wind Dir Wind Speed Gust Speed Precip Events Conditions
12:51 AM 39.0 °F 35.7 °F 34.0 °F 82% 30.13 in 6.0 mi South 4.6 mph - N/A   Haze
1:51 AM 39.0 °F 36.8 °F 33.1 °F 79% 30.14 in 6.0 mi South 3.5 mph - N/A   Haze
2:51 AM 39.0 °F 36.8 °F 33.1 °F 79% 30.13 in 5.0 mi SSE 3.5 mph - N/A   Haze
3:51 AM 39.0 °F 34.0 °F 34.0 °F 82% 30.11 in 5.0 mi South 6.9 mph - N/A   Haze
4:51 AM 39.0 °F 34.8 °F 34.0 °F 82% 30.11 in 5.0 mi South 5.8 mph - N/A   Haze
5:51 AM 37.4 °F 33.8 °F 33.8 °F 87% 30.09 in 5.0 mi South 4.6 mph - N/A   Clear
6:51 AM 37.9 °F 33.5 °F 34.0 °F 86% 30.11 in 4.0 mi SSE 5.8 mph - N/A   Partly Cloudy
7:51 AM 41.0 °F 35.8 °F 35.1 °F 79% 30.12 in 4.0 mi South 8.1 mph - N/A   Haze
8:51 AM 46.4 °F 42.4 °F 35.6 °F 66% 30.08 in 6.0 mi South 8.1 mph - N/A   Haze
9:51 AM 48.9 °F - 37.0 °F 64% 30.10 in 8.0 mi South 5.8 mph - N/A   Mostly Cloudy
10:51 AM 52.0 °F - 37.9 °F 59% 30.08 in 9.0 mi SSW 8.1 mph - N/A   Partly Cloudy
11:51 AM 55.0 °F - 39.9 °F 57% 30.05 in 9.0 mi SSW 10.4 mph - N/A   Mostly Cloudy
12:51 PM 55.0 °F - 41.0 °F 59% 30.04 in 10.0 mi South 8.1 mph - N/A   Mostly Cloudy
1:51 PM 55.9 °F - 41.0 °F 57% 30.01 in 10.0 mi South 8.1 mph - N/A   Overcast
2:51 PM 57.0 °F - 42.1 °F 57% 30.00 in 9.0 mi SE 6.9 mph - N/A   Overcast
3:51 PM 57.9 °F - 42.1 °F 56% 29.99 in 10.0 mi SSE 6.9 mph - N/A   Overcast
4:51 PM 57.0 °F - 43.0 °F 59% 30.00 in 8.0 mi South 6.9 mph - N/A   Overcast
5:51 PM 55.9 °F - 43.0 °F 62% 30.01 in 8.0 mi SE 5.8 mph - N/A   Overcast
6:51 PM 55.9 °F - 44.1 °F 64% 30.00 in 8.0 mi SE 4.6 mph - N/A   Overcast
7:51 PM 57.0 °F - 44.1 °F 62% 30.01 in 8.0 mi ESE 4.6 mph - N/A   Overcast
8:51 PM 57.0 °F - 44.1 °F 62% 30.01 in 9.0 mi SE 5.8 mph - N/A   Overcast
9:51 PM 57.0 °F - 44.1 °F 62% 30.00 in 9.0 mi SE 5.8 mph - N/A   Overcast
10:51 PM 55.9 °F - 43.0 °F 62% 29.99 in 8.0 mi SSE 5.8 mph - N/A   Overcast
11:51 PM 54.0 °F - 43.0 °F 66% 29.99 in 10.0 mi SSE 3.5 mph - N/A   Overcast